Regional Weather Roundup
Issued by NWS

Home | Current Version | Previous Version | Text Only | Print | Product List | Glossary On
Versions: 1 2 3 4 5 6 7 8 9 10 11 12 13 14 15 16 17 18 19 20 21 22 23 24 25 26 27 28 29 30 31 32 33 34 35 36 37 38 39 40 41 42 43 44 45 46 47 48 49 50
000
ASUS42 KFFC 231903
RWRGA
WEATHER ROUNDUP FOR GEORGIA
NATIONAL WEATHER SERVICE PEACHTREE CITY GA
300 PM EDT SAT AUG 23 2014

NOTE: "FAIR" INDICATES FEW OR NO CLOUDS BELOW 12,000 FEET WITH NO
SIGNIFICANT WEATHER AND/OR OBSTRUCTIONS TO VISIBILITY.

* = USE WITH CAUTION. THE STATIONS MARKED WITH AN ASTERISK MAY NOT
REPORT WEATHER SUCH AS PRECIPITATION, FOG, OR THUNDER AND ARE NOT
QUALITY CONTROLLED BY NWS.

THE REMARK "TC" DENOTES TEMPERATURE READING IN DEGREES CELSIUS.

GAZ001>058-232000-
NORTH GEORGIA

CITY           SKY/WX    TMP DP  RH WIND       PRES   REMARKS
ATLANTA        MOSUNNY   91  70  49 NW12      29.99F HX  96
ATHENS         PTSUNNY   97  68  38 VRB5      29.95F HX 102
CHAMBLEE       SUNNY     91  67  44 NW9       29.98F HX  94
PEACHTREE CITY SUNNY     92  70  48 VRB6      29.98F HX  97
ROME           PTSUNNY   92  72  51 E3        29.97F HX  99
WEST ATLANTA   MOSUNNY   92  71  50 NW5       29.98F HX  98
GAINESVILLE    MOSUNNY   93  68  43 W6        30.00F HX  97
CARTERSVILLE   PTSUNNY   93  69  45 VRB6      29.98F HX  98


CITY           SKY/WX    TMP DP  RH WIND       PRES   REMARKS
DALTON*        PTSUNNY   88  73  62 CALM      29.99S HX  96
LAWRENCEVILLE* PTSUNNY   91  64  40 NW6       29.98F HX  93
MARIETTA       MOSUNNY   91  72  53 NW8       29.99F HX  98
KENNESAW*      MOSUNNY  N/A N/A N/A CALM      30.01F
$$

GAZ059>098-102>109-232000-
CENTRAL GEORGIA

CITY           SKY/WX    TMP DP  RH WIND       PRES   REMARKS
AUGUSTA-BUSH   MOSUNNY   99  66  33 N9        29.89F HX 103
AUGUSTA-DANIEL MOSUNNY   99  65  32 W8        29.91F HX 102
COLUMBUS       MOSUNNY   97  67  37 NW9G16    29.95F HX 101
MACON          MOSUNNY   97  66  36 NW9       29.93F HX 100
ROBINS AFB     SUNNY     97  68  38 NW10G20   29.93F HX 102


CITY           SKY/WX    TMP DP  RH WIND       PRES   REMARKS
LAGRANGE*      MOSUNNY   98  73  43 NW9       29.98F HX 107
SYLVANIA*      SUNNY     97  73  45 N10       29.90F HX 107
$$

GAZ099>101-110>166-232000-
SOUTH GEORGIA

CITY           SKY/WX    TMP DP  RH WIND       PRES   REMARKS
SAVANNAH       MOSUNNY  100  68  35 N14       29.89F HX 105
VALDOSTA       MOSUNNY   97  68  38 VRB5      29.92F HX 102
ALMA           MOSUNNY   98  68  37 MISG      29.91F HX 103
ST SIMONS      MOSUNNY   98  69  38 W8        29.89F HX 104
FT STEWART     MOSUNNY  100  67  33 W9G21     29.88F HX 105
ALBANY         MOSUNNY   99  71  40 W13       29.94F HX 107
HUNTER AFB     SUNNY     99  68  37 W12       29.87F HX 104
MOODY AFB      MOSUNNY   97  69  40 W6        29.93F HX 103
BRUNSWICK      MOSUNNY   99  68  36 W9        29.90F HX 104


CITY           SKY/WX    TMP DP  RH WIND       PRES   REMARKS
BAINBRIDGE*    SUNNY    100  73  41 SW9       29.93F HX 111
MOULTRIE*      MOSUNNY   99  64  32 W6        29.94F HX 101
VIDALIA*         N/A     99  70  39 N12       29.92F HX 105
WAYCROSS*      MOSUNNY  102  75  42 N10       29.90F HX 115
DOUGLAS*       MOSUNNY  100  68  34 N12       29.93F HX 106
$$



USA.gov is the U.S. government's official web portal to all federal, state and local government web resources and services.